FW6610 Weather Reports


time (UTC)temp
F
wind
direction
speed
knots
gust
knots
rain 1hr
in
rain 24hr
in
rain mn
in
humidity
%
barometer
mb
20260905212030 72 0 0.0 1.7 0.00 0.01 0.01 76 1011.1
20260905211612 73 312 0.0 2.6 0.00 0.01 0.01 75 1010.9
20260905211029 74 292 0.0 2.6 0.00 0.01 0.01 74 1010.8
20260905210529 74 329 0.9 2.6 0.00 0.01 0.01 71 1010.7
20260905210054 75 0 0.0 4.3 0.00 0.01 0.01 72 1010.7
20260905205527 75 0 0.9 4.3 0.00 0.01 0.01 69 1010.8
20260905205029 75 273 0.9 3.5 0.00 0.01 0.01 68 1010.7
20260905204557 75 295 0.9 5.2 0.00 0.01 0.01 67 1010.8
20260905204029 76 104 2.6 5.2 0.00 0.01 0.01 67 1010.8
20260905203529 77 285 1.7 6.1 0.00 0.01 0.01 66 1010.7
20260905203110 77 354 1.7 6.1 0.00 0.01 0.01 64 1010.6
20260905202531 77 313 1.7 5.2 0.00 0.01 0.01 64 1010.5
20260905202029 77 333 1.7 3.5 0.00 0.01 0.01 67 1010.7
20260905201546 77 274 0.9 3.5 0.00 0.01 0.01 65 1010.6
20260905201029 76 205 0.0 1.7 0.00 0.01 0.01 68 1010.5
20260905200531 74 243 0.0 1.7 0.00 0.01 0.01 71 1010.5
20260905200053 74 0 0.0 0.9 0.00 0.01 0.01 74 1010.5
20260905195530 74 23 0.0 0.9 0.00 0.01 0.01 73 1010.5
20260905195031 75 0 0.0 5.2 0.00 0.01 0.01 74 1010.5
20260905194549 75 0 0.0 5.2 0.00 0.01 0.01 68 1010.5
20260905194029 75 47 1.7 5.2 0.00 0.01 0.01 67 1010.6
20260905193529 75 299 1.7 5.2 0.00 0.01 0.01 67 1010.7
20260905193044 74 134 0.9 5.2 0.00 0.01 0.01 68 1010.5
20260905192528 74 102 2.6 5.2 0.00 0.01 0.01 68 1010.6
20260905192028 74 280 1.7 4.3 0.00 0.01 0.01 70 1010.4
20260905191545 74 334 1.7 4.3 0.00 0.01 0.01 68 1010.3
20260905191029 74 349 0.9 4.3 0.00 0.01 0.01 70 1010.6
20260905190529 74 322 0.9 5.2 0.00 0.01 0.01 70 1010.5
20260905190049 74 333 0.9 5.2 0.00 0.01 0.01 69 1010.6
20260905185528 74 299 0.9 5.2 0.00 0.01 0.01 69 1010.5
20260905185028 74 295 1.7 4.3 0.00 0.01 0.01 67 1010.4
20260905184550 74 308 1.7 4.3 0.00 0.01 0.01 65 1010.4
20260905184029 74 49 1.7 4.3 0.00 0.01 0.01 67 1010.6
20260905183528 74 17 1.7 4.3 0.00 0.01 0.01 69 1010.7
20260905183045 74 296 0.9 4.3 0.00 0.01 0.01 70 1010.6
20260905182528 74 275 0.0 3.5 0.00 0.01 0.01 70 1010.5
20260905182029 74 319 0.0 3.5 0.00 0.01 0.01 69 1010.6
20260905181601 74 15 0.9 3.5 0.00 0.01 0.01 69 1010.5
20260905181027 74 11 1.7 3.5 0.00 0.01 0.01 68 1010.5
20260905180529 74 290 0.9 3.5 0.00 0.01 0.01 71 1010.8
20260905180051 74 279 0.9 3.5 0.00 0.01 0.01 68 1010.7
20260905175530 74 0 0.9 3.5 0.00 0.01 0.01 71 1010.6
20260905175029 74 252 0.9 7.8 0.00 0.01 0.01 68 1010.6
20260905174551 74 0 0.9 7.8 0.00 0.01 0.01 69 1010.7
20260905174030 74 160 2.6 7.8 0.00 0.01 0.01 65 1010.7
20260905173529 75 343 1.7 5.2 0.00 0.01 0.01 66 1010.7
20260905173045 75 278 0.9 5.2 0.00 0.01 0.01 69 1010.7
20260905172529 75 257 0.9 6.1 0.00 0.01 0.01 67 1010.8
20260905172029 74 32 0.9 7.8 0.00 0.01 0.01 68 1010.7
20260905171552 75 288 3.5 7.8 0.00 0.01 0.01 66 1010.7
20260905171030 75 240 0.9 3.5 0.00 0.01 0.01 69 1010.7
20260905170527 75 280 1.7 5.2 0.00 0.01 0.01 68 1010.8
20260905170053 75 345 1.7 6.1 0.00 0.01 0.01 67 1010.8
20260905165533 74 247 2.6 6.1 0.00 0.01 0.01 64 1010.6
20260905165029 75 288 1.7 6.1 0.00 0.01 0.01 66 1010.7
20260905164542 74 170 1.7 6.1 0.00 0.01 0.01 66 1010.8
20260905164029 74 154 2.6 7.8 0.00 0.01 0.01 70 1010.7
20260905163528 75 290 3.5 7.8 0.00 0.01 0.01 66 1010.7
20260905163043 76 272 1.7 5.2 0.00 0.01 0.01 67 1010.7
20260905162527 75 271 0.9 6.1 0.00 0.01 0.01 70 1010.6
20260905162028 75 62 1.7 7.8 0.00 0.01 0.01 68 1010.8
20260905161541 75 272 1.7 7.8 0.00 0.01 0.01 68 1010.7
20260905161030 75 278 2.6 7.8 0.00 0.01 0.01 66 1010.8
20260905160526 75 160 1.7 6.1 0.00 0.01 0.01 67 1010.8
20260905160115 75 307 1.7 6.1 0.00 0.01 0.01 69 1010.8
20260905155529 75 323 0.9 6.1 0.00 0.01 0.01 68 1011.1
20260905155028 74 101 1.7 8.7 0.00 0.01 0.01 70 1011.1
20260905154559 73 110 1.7 8.7 0.00 0.01 0.01 70 1011.1
20260905154029 73 224 1.7 8.7 0.00 0.01 0.01 73 1011.2
20260905153529 72 286 1.7 7.0 0.00 0.01 0.01 76 1011.2
20260905153053 72 319 2.6 7.0 0.00 0.01 0.01 72 1011.1
20260905152526 72 271 1.7 7.8 0.00 0.01 0.01 73 1011.2
20260905152025 72 314 1.7 7.8 0.00 0.01 0.01 73 1011.2
20260905151547 72 305 1.7 7.8 0.00 0.01 0.01 73 1011.3
20260905151029 72 112 0.9 5.2 0.00 0.01 0.01 73 1011.2
20260905150529 72 302 1.7 5.2 0.00 0.01 0.01 73 1011.1
20260905150046 72 16 1.7 7.0 0.01 0.01 0.01 74 1011.2
20260905145529 72 348 0.9 7.0 0.01 0.01 0.01 75 1011.2
20260905145029 72 11 0.9 6.1 0.01 0.01 0.01 76 1011.0
20260905144552 72 37 1.7 6.1 0.01 0.01 0.01 76 1011.2
20260905144032 71 285 2.6 7.8 0.01 0.01 0.01 74 1011.3
20260905143531 71 131 1.7 10.4 0.01 0.01 0.01 75 1011.2
20260905143055 70 297 3.5 10.4 0.01 0.01 0.01 75 1011.3
20260905142530 71 286 3.5 7.0 0.01 0.01 0.01 75 1011.4
20260905142030 70 275 3.5 7.0 0.01 0.01 0.01 76 1011.4
20260905141551 70 247 2.6 7.0 0.01 0.01 0.01 77 1011.3
20260905141030 69 329 2.6 7.8 0.01 0.01 0.01 77 1011.4
20260905140532 69 286 2.6 7.8 0.01 0.01 0.01 77 1011.5
20260905140052 69 162 1.7 6.1 0.00 0.00 0.00 81 1011.3
20260905135528 69 203 1.7 6.1 0.00 0.00 0.00 81 1011.3
20260905135027 68 269 1.7 5.2 0.00 0.00 0.00 84 1011.4
20260905134549 67 56 1.7 4.3 0.00 0.00 0.00 85 1011.5
20260905134030 67 241 0.9 4.3 0.00 0.00 0.00 87 1011.5
20260905133529 66 276 0.9 4.3 0.00 0.00 0.00 89 1011.3
20260905133046 65 347 0.9 3.5 0.00 0.00 0.00 92 1011.5
20260905132532 65 309 0.0 3.5 0.00 0.00 0.00 94 1011.3
20260905132030 64 0 0.0 0.9 0.00 0.00 0.00 98 1011.4
20260905131600 63 356 0.0 0.9 0.00 0.00 0.00 99 1011.3
20260905131029 63 358 0.0 0.9 0.00 0.00 0.00 99 1011.5
20260905130529 62 347 0.0 0.9 0.00 0.00 0.00 99 1011.5
20260905130051 62 0 0.0 0.0 0.00 0.00 0.00 99 1011.6
20260905125528 62 0 0.0 0.0 0.00 0.00 0.00 99 1011.5
20260905125029 61 0 0.0 0.0 0.00 0.00 0.00 99 1011.7
20260905124554 61 0 0.0 0.0 0.00 0.00 0.00 99 1011.7
20260905124033 61 0 0.0 0.0 0.00 0.00 0.00 99 1011.7
20260905123530 61 0 0.0 0.0 0.00 0.00 0.00 99 1011.6
20260905123046 60 0 0.0 0.0 0.00 0.00 0.00 99 1011.6
20260905122529 60 0 0.0 0.0 0.00 0.00 0.00 99 1011.6
20260905122028 60 0 0.0 0.0 0.00 0.00 0.00 99 1011.5
20260905121556 60 0 0.0 0.0 0.00 0.00 0.00 99 1011.4
20260905121028 59 0 0.0 0.0 0.00 0.00 0.00 99 1011.3
20260905120530 59 0 0.0 0.0 0.00 0.00 0.00 99 1011.3
20260905120110 59 0 0.0 0.0 0.00 0.00 0.00 99 1011.3
20260905115528 58 0 0.0 0.0 0.00 0.00 0.00 99 1011.2
20260905115029 58 0 0.0 0.0 0.00 0.00 0.00 99 1011.2
20260905114551 57 0 0.0 0.0 0.00 0.00 0.00 99 1011.1
20260905114029 57 0 0.0 0.0 0.00 0.00 0.00 99 1011.1
20260905113528 57 0 0.0 0.0 0.00 0.00 0.00 99 1010.9
20260905113048 56 0 0.0 0.0 0.00 0.00 0.00 99 1010.9
20260905112529 56 0 0.0 0.0 0.00 0.00 0.00 99 1011.0
20260905112028 56 0 0.0 0.0 0.00 0.00 0.00 99 1010.9
20260905111609 56 0 0.0 0.0 0.00 0.00 0.00 99 1010.9
20260905111029 56 0 0.0 0.0 0.00 0.00 0.00 98 1010.8
20260905110531 55 0 0.0 0.0 0.00 0.00 0.00 98 1010.6
20260905110057 55 0 0.0 0.0 0.00 0.00 0.00 98 1010.7
20260905105529 55 0 0.0 0.0 0.00 0.00 0.00 98 1010.6
20260905105030 55 0 0.0 0.0 0.00 0.00 0.00 98 1010.4
20260905104548 55 0 0.0 0.0 0.00 0.00 0.00 98 1010.5
20260905104029 56 0 0.0 0.0 0.00 0.00 0.00 98 1010.4
20260905103529 56 0 0.0 0.0 0.00 0.00 0.00 98 1010.4
20260905103053 56 0 0.0 0.0 0.00 0.00 0.00 98 1010.3
20260905102528 56 0 0.0 0.0 0.00 0.00 0.00 98 1010.3
20260905102027 56 0 0.0 0.0 0.00 0.00 0.00 98 1010.3
20260905101548 56 0 0.0 0.0 0.00 0.00 0.00 98 1010.3
20260905101029 56 0 0.0 0.0 0.00 0.00 0.00 98 1010.2
20260905100529 56 0 0.0 0.0 0.00 0.00 0.00 98 1010.3
20260905100055 55 0 0.0 0.0 0.00 0.00 0.00 98 1010.3
20260905095528 55 0 0.0 0.0 0.00 0.00 0.00 98 1010.2
20260905095029 56 0 0.0 0.0 0.00 0.00 0.00 98 1010.3
20260905094552 56 0 0.0 0.0 0.00 0.00 0.00 98 1010.3
20260905094028 56 0 0.0 0.0 0.00 0.00 0.00 98 1010.2
20260905093531 56 0 0.0 0.0 0.00 0.00 0.00 98 1010.2
20260905093052 56 0 0.0 0.0 0.00 0.00 0.00 98 1010.1
20260905092527 56 0 0.0 0.0 0.00 0.00 0.00 98 1010.2
20260905092027 56 0 0.0 0.0 0.00 0.00 0.00 98 1010.1
20260905091614 56 0 0.0 0.0 0.00 0.00 0.00 98 1009.9
20260905091033 57 0 0.0 0.0 0.00 0.00 0.00 98 1009.9
20260905090525 57 0 0.0 0.0 0.00 0.00 0.00 98 1009.9
20260905090044 57 0 0.0 0.0 0.00 0.00 0.00 98 1009.9
20260905085529 57 0 0.0 0.0 0.00 0.00 0.00 98 1009.9
20260905085027 57 0 0.0 0.0 0.00 0.00 0.00 98 1010.1
20260905084545 57 0 0.0 0.0 0.00 0.00 0.00 98 1010.0
20260905084029 57 0 0.0 0.0 0.00 0.00 0.00 98 1009.9
20260905083530 57 0 0.0 0.0 0.00 0.00 0.00 98 1010.1
20260905083053 57 0 0.0 0.0 0.00 0.00 0.00 98 1009.9
20260905082527 57 0 0.0 0.0 0.00 0.00 0.00 98 1009.9
20260905082026 57 0 0.0 0.0 0.00 0.00 0.00 97 1009.9
20260905081551 58 0 0.0 0.0 0.00 0.00 0.00 98 1009.8
20260905081026 58 0 0.0 0.0 0.00 0.00 0.00 98 1009.9
20260905080525 58 0 0.0 0.0 0.00 0.00 0.00 98 1010.0
20260905080050 58 0 0.0 0.0 0.00 0.00 0.00 98 1010.1
20260905075525 58 0 0.0 0.0 0.00 0.00 0.00 98 1010.1
20260905075028 58 0 0.0 0.0 0.00 0.00 0.00 98 1010.0
20260905074545 57 0 0.0 0.0 0.00 0.00 0.00 97 1010.1
20260905074033 57 0 0.0 0.0 0.00 0.00 0.00 97 1010.2
20260905073528 58 0 0.0 0.0 0.00 0.00 0.00 97 1010.0
20260905073052 58 0 0.0 0.0 0.00 0.00 0.00 98 1010.2
20260905072527 58 0 0.0 0.0 0.00 0.00 0.00 97 1010.1
20260905072027 58 0 0.0 0.0 0.00 0.00 0.00 97 1010.3
20260905071551 58 0 0.0 0.0 0.00 0.00 0.00 97 1010.1
20260905071029 58 0 0.0 0.0 0.00 0.00 0.00 97 1010.1
20260905070529 58 0 0.0 0.0 0.00 0.00 0.00 96 1010.1
20260905070136 58 0 0.0 0.0 0.00 0.00 0.00 97 1010.2
20260905065531 58 0 0.0 0.0 0.00 0.00 0.00 97 1010.2
20260905065028 58 0 0.0 0.0 0.00 0.00 0.00 96 1010.0
20260905064554 58 0 0.0 0.0 0.00 0.00 0.00 96 1010.3
20260905064028 58 0 0.0 0.0 0.00 0.00 0.00 96 1010.3
20260905063525 59 0 0.0 0.0 0.00 0.00 0.00 96 1010.2
20260905063053 59 0 0.0 0.0 0.00 0.00 0.00 96 1010.3
20260905062528 59 0 0.0 0.0 0.00 0.00 0.00 96 1010.2
20260905062028 59 0 0.0 0.0 0.00 0.00 0.00 96 1010.4
20260905061613 59 0 0.0 0.0 0.00 0.00 0.00 96 1010.1
20260905061026 59 0 0.0 0.0 0.00 0.00 0.00 96 1010.3
20260905060528 59 0 0.0 0.0 0.00 0.00 0.00 95 1010.4
20260905060046 59 0 0.0 0.0 0.00 0.00 0.00 95 1010.4
20260905055529 59 0 0.0 0.0 0.00 0.00 0.00 94 1010.6
20260905055032 60 0 0.0 0.0 0.00 0.00 0.00 94 1010.6
20260905054546 60 0 0.0 0.0 0.00 0.00 0.00 94 1010.5
20260905054028 60 0 0.0 0.0 0.00 0.00 0.00 94 1010.8
20260905053530 61 0 0.0 0.0 0.00 0.00 0.00 94 1010.8
20260905053054 61 0 0.0 0.0 0.00 0.00 0.00 93 1010.7
20260905052527 61 0 0.0 0.0 0.00 0.00 0.00 93 1010.7
20260905052027 62 0 0.0 0.0 0.00 0.00 0.00 92 1010.8
20260905051551 62 0 0.0 0.0 0.00 0.00 0.00 91 1010.9
20260905051026 62 0 0.0 0.0 0.00 0.00 0.00 91 1010.9
20260905050527 63 0 0.0 0.0 0.00 0.00 0.00 90 1010.8
20260905050048 63 0 0.0 0.0 0.00 0.00 0.00 90 1010.9
20260905045530 64 0 0.0 2.6 0.00 0.00 0.00 87 1010.9
20260905045029 64 0 0.0 2.6 0.00 0.00 0.00 88 1010.8
20260905044546 63 315 0.9 2.6 0.00 0.00 0.00 89 1010.8
20260905044028 63 16 0.0 3.5 0.00 0.00 0.00 90 1011.0
20260905043525 62 15 0.9 3.5 0.00 0.00 0.00 93 1010.9
20260905043051 61 348 0.0 0.9 0.00 0.00 0.00 95 1010.9
20260905042525 61 0 0.0 0.0 0.00 0.00 0.00 96 1010.8
20260905042027 61 0 0.0 0.0 0.00 0.00 0.00 96 1010.7
20260905041600 61 0 0.0 0.0 0.00 0.00 0.00 96 1010.8
20260905041029 61 0 0.0 0.0 0.00 0.00 0.00 96 1010.7
20260905040526 61 0 0.0 0.0 0.00 0.00 0.00 96 1010.5
20260905040048 61 0 0.0 0.0 0.00 0.00 0.00 96 1010.5
20260905035527 61 309 0.0 0.0 0.00 0.00 0.00 96 1010.4
20260905035029 61 0 0.0 0.0 0.00 0.00 0.00 95 1010.4
20260905034554 61 0 0.0 0.0 0.00 0.00 0.00 95 1010.6
20260905034024 61 0 0.0 0.0 0.00 0.00 0.00 95 1010.7
20260905033528 62 0 0.0 0.0 0.00 0.00 0.00 95 1010.8
20260905033044 62 0 0.0 0.0 0.00 0.00 0.00 95 1010.8
20260905032529 62 0 0.0 0.0 0.00 0.00 0.00 95 1010.8
20260905032027 62 0 0.0 0.0 0.00 0.00 0.00 95 1010.8
20260905031552 62 0 0.0 0.0 0.00 0.00 0.00 95 1010.8
20260905031028 62 0 0.0 0.0 0.00 0.00 0.00 95 1011.0
20260905030526 62 0 0.0 0.0 0.00 0.00 0.00 95 1010.9
20260905030046 62 0 0.0 0.0 0.00 0.00 0.00 95 1010.9
20260905025528 62 0 0.0 0.0 0.00 0.00 0.00 95 1011.0
20260905025026 62 0 0.0 0.0 0.00 0.00 0.00 95 1010.9
20260905024553 62 309 0.0 0.0 0.00 0.00 0.00 95 1010.8
20260905024028 62 0 0.0 0.0 0.00 0.00 0.00 95 1010.7
20260905023528 62 0 0.0 0.0 0.00 0.00 0.00 95 1010.7
20260905023051 62 0 0.0 0.0 0.00 0.00 0.00 95 1010.6
20260905022527 62 0 0.0 0.0 0.00 0.00 0.00 94 1010.6
20260905022030 62 0 0.0 0.0 0.00 0.00 0.00 94 1010.5
20260905021557 63 0 0.0 0.0 0.00 0.00 0.00 94 1010.6
20260905021028 63 0 0.0 0.0 0.00 0.00 0.00 94 1010.8
20260905020528 63 0 0.0 0.0 0.00 0.00 0.00 93 1010.7
20260905020052 63 0 0.0 0.0 0.00 0.00 0.00 93 1010.8
20260905015529 63 0 0.0 0.0 0.00 0.00 0.00 93 1011.0
20260905015030 64 0 0.0 0.0 0.00 0.00 0.00 92 1010.9
20260905014545 64 0 0.0 0.0 0.00 0.00 0.00 92 1010.9
20260905014030 64 0 0.0 0.0 0.00 0.00 0.00 92 1010.9
20260905013529 64 0 0.0 0.0 0.00 0.00 0.00 92 1010.9
20260905013044 64 0 0.0 0.0 0.00 0.00 0.00 91 1011.1
20260905012527 65 0 0.0 0.0 0.00 0.00 0.00 91 1010.9
20260905012031 65 0 0.0 0.0 0.00 0.00 0.00 91 1011.0
20260905011556 65 0 0.0 0.0 0.00 0.00 0.00 91 1011.0
20260905011030 65 0 0.0 0.0 0.00 0.00 0.00 90 1010.9
20260905010531 66 0 0.0 0.0 0.00 0.00 0.00 90 1011.0
20260905010051 66 0 0.0 0.0 0.00 0.00 0.00 90 1011.0
20260905005530 66 0 0.0 0.0 0.00 0.00 0.00 89 1010.9
20260905005030 66 0 0.0 0.0 0.00 0.00 0.00 89 1011.0
20260905004550 67 0 0.0 0.0 0.00 0.00 0.00 89 1010.9
20260905004030 67 0 0.0 0.0 0.00 0.00 0.00 89 1011.1
20260905003531 67 0 0.0 0.0 0.00 0.00 0.00 88 1011.0
20260905003046 67 0 0.0 0.0 0.00 0.00 0.00 88 1010.8
20260905002529 68 0 0.0 0.0 0.00 0.00 0.00 87 1010.7
20260905002032 68 0 0.0 0.0 0.00 0.00 0.00 87 1010.7
20260905001601 68 0 0.0 0.0 0.00 0.00 0.00 86 1010.6
20260905001033 69 0 0.0 0.0 0.00 0.00 0.00 85 1010.6
20260905000531 69 0 0.0 0.0 0.00 0.00 0.00 85 1010.4
20260904235529 70 0 0.0 0.9 0.00 0.00 0.00 81 1010.3
20260904235032 70 0 0.0 2.6 0.00 0.00 0.00 80 1010.2
20260904234546 70 0 0.0 2.6 0.00 0.00 0.00 81 1010.3
20260904234029 70 0 0.0 0.9 0.00 0.00 0.00 82 1010.4
20260904233530 69 0 0.0 0.9 0.00 0.00 0.00 82 1010.3
20260904233114 69 0 0.0 0.0 0.00 0.00 0.00 84 1010.3
20260904232531 70 0 0.0 0.0 0.00 0.00 0.00 84 1010.3
20260904232031 70 0 0.0 0.0 0.00 0.00 0.00 84 1010.4
20260904231602 70 0 0.0 0.0 0.00 0.00 0.00 82 1010.2
20260904231031 71 0 0.0 0.0 0.00 0.00 0.00 82 1010.3
20260904230531 71 0 0.0 0.0 0.00 0.00 0.00 83 1010.2
20260904230051 72 0 0.0 0.0 0.00 0.00 0.00 82 1010.1
20260904225529 72 0 0.0 0.0 0.00 0.00 0.00 81 1010.1
20260904225032 73 0 0.0 0.9 0.00 0.00 0.00 81 1010.2
20260904224608 74 0 0.0 0.9 0.00 0.00 0.00 79 1010.2
20260904224030 74 0 0.0 0.9 0.00 0.00 0.00 78 1010.3
20260904223529 75 0 0.0 0.9 0.00 0.00 0.00 77 1010.1
20260904223056 75 0 0.0 0.9 0.00 0.00 0.00 75 1009.9
20260904222531 76 0 0.0 0.9 0.00 0.00 0.00 72 1010.0
20260904222029 77 0 0.0 0.9 0.00 0.00 0.00 69 1010.0
20260904221555 78 309 0.0 0.9 0.00 0.00 0.00 66 1009.9
20260904221029 78 269 0.0 3.5 0.00 0.00 0.00 64 1009.9
20260904220530 79 0 0.0 3.5 0.00 0.00 0.00 64 1010.0
20260904220053 79 26 0.9 3.5 0.00 0.00 0.00 62 1009.9
20260904215528 79 290 0.9 4.3 0.00 0.00 0.00 61 1009.8
20260904215032 79 281 1.7 4.3 0.00 0.00 0.00 60 1009.9
20260904214602 79 303 1.7 4.3 0.00 0.00 0.00 61 1010.0
20260904214027 80 310 0.0 2.6 0.00 0.00 0.00 62 1010.1
20260904213533 79 19 0.9 3.5 0.00 0.00 0.00 60 1010.1
20260904213056 78 306 0.9 3.5 0.00 0.00 0.00 59 1010.1
20260904212532 78 320 1.7 3.5 0.00 0.00 0.00 58 1010.1